UAL8301 KMKE-KMSY

Flight info

Callsign UAL8301
Flight time 1h 54m
Altitude 40000
Route ACCRA5 ACCRA BACEN BLOKR BEKKI ENL J71 MEM J35 SQS/N0482F390 J35 MCB TRSSH1
Aircraft B77W/H-SDE1E2E3FGHIJ2J3J4J5M1RWXY/LB1D1

Departure

Time 2026-04-23 22:10
Airport General Mitchell International Airport (KMKE)

Arrival

Time 2026-04-24 00:05
Airport Louis Armstrong New Orleans International Airport (KMSY)
Time Latitude Longitude Altitude Speed Heading
2026-04-23 21:51 42.95135 -87.90058 685 ft 0 kts 199°
2026-04-23 22:02 42.95144 -87.90054 699 ft 4 kts 203°
2026-04-23 22:02 42.95165 -87.90036 680 ft 4 kts 225°
2026-04-23 22:02 42.95179 -87.90007 676 ft 4 kts 262°
2026-04-23 22:02 42.95175 -87.89975 678 ft 4 kts 305°
2026-04-23 22:03 42.95157 -87.89948 679 ft 4 kts 323°
2026-04-23 22:03 42.95135 -87.89928 677 ft 4 kts 328°
2026-04-23 22:03 42.95113 -87.89907 681 ft 3 kts 315°
2026-04-23 22:03 42.95111 -87.89905 683 ft 0 kts 313°
2026-04-23 22:05 42.95101 -87.89933 676 ft 4 kts 198°
2026-04-23 22:05 42.95084 -87.89902 677 ft 9 kts 110°
2026-04-23 22:06 42.95063 -87.89809 680 ft 10 kts 89°
2026-04-23 22:06 42.95109 -87.89741 678 ft 10 kts 26°
2026-04-23 22:06 42.95178 -87.89695 679 ft 12 kts 29°
2026-04-23 22:06 42.95254 -87.89640 679 ft 13 kts 27°
2026-04-23 22:07 42.95332 -87.89584 680 ft 13 kts 27°
2026-04-23 22:07 42.95410 -87.89530 681 ft 13 kts 26°
2026-04-23 22:07 42.95499 -87.89498 680 ft 14 kts
2026-04-23 22:07 42.95592 -87.89483 684 ft 14 kts
2026-04-23 22:08 42.95686 -87.89467 685 ft 14 kts
2026-04-23 22:08 42.95745 -87.89380 682 ft 14 kts 85°
2026-04-23 22:08 42.95686 -87.89313 680 ft 12 kts 184°
2026-04-23 22:08 42.95648 -87.89319 683 ft 0 kts 188°
2026-04-23 22:09 42.95524 -87.89341 681 ft 55 kts 187°
2026-04-23 22:10 42.94840 -87.89458 687 ft 139 kts 187°
2026-04-23 22:10 42.93686 -87.89643 841 ft 185 kts 187°
2026-04-23 22:10 42.92350 -87.89951 1414 ft 203 kts 188°
2026-04-23 22:10 42.90924 -87.90286 2144 ft 218 kts 188°
2026-04-23 22:11 42.89380 -87.90608 2999 ft 230 kts 189°
2026-04-23 22:11 42.87781 -87.91041 3752 ft 242 kts 199°
2026-04-23 22:11 42.86356 -87.92262 4753 ft 245 kts 225°
2026-04-23 22:11 42.85267 -87.94040 5592 ft 251 kts 227°
2026-04-23 22:12 42.84051 -87.95785 6574 ft 255 kts 222°
2026-04-23 22:12 42.82748 -87.97456 7481 ft 261 kts 221°
2026-04-23 22:12 42.81412 -87.99153 8429 ft 266 kts 222°
2026-04-23 22:12 42.80053 -88.00884 9340 ft 270 kts 222°
2026-04-23 22:13 42.78664 -88.02664 10131 ft 276 kts 223°
2026-04-23 22:13 42.77242 -88.04502 10835 ft 291 kts 223°
2026-04-23 22:13 42.75700 -88.06506 11112 ft 323 kts 224°
2026-04-23 22:13 42.74019 -88.08690 11377 ft 352 kts 224°
2026-04-23 22:14 42.72811 -88.10260 11913 ft 361 kts 224°
2026-04-23 22:14 42.70285 -88.13229 13213 ft 366 kts 211°
2026-04-23 22:14 42.67898 -88.14506 14280 ft 373 kts 194°
2026-04-23 22:14 42.65287 -88.14822 15307 ft 382 kts 182°
2026-04-23 22:15 42.62600 -88.14751 16198 ft 391 kts 180°
2026-04-23 22:15 42.59853 -88.14664 17138 ft 399 kts 181°
2026-04-23 22:15 42.57067 -88.14617 18183 ft 403 kts 181°
2026-04-23 22:15 42.55199 -88.14603 18720 ft 408 kts 182°
2026-04-23 22:16 42.51368 -88.14503 19662 ft 422 kts 180°
2026-04-23 22:16 42.48404 -88.14365 20380 ft 431 kts 180°
2026-04-23 22:16 42.45389 -88.14226 21109 ft 438 kts 180°
2026-04-23 22:16 42.42316 -88.14098 21869 ft 445 kts 180°
2026-04-23 22:17 42.39209 -88.13746 22617 ft 453 kts 173°
2026-04-23 22:17 42.37150 -88.13193 23121 ft 458 kts 169°
2026-04-23 22:17 42.34038 -88.12205 23797 ft 463 kts 169°
2026-04-23 22:17 42.30869 -88.11250 24468 ft 467 kts 170°
2026-04-23 22:18 42.27678 -88.10382 25146 ft 470 kts 171°
2026-04-23 22:18 42.23389 -88.09314 25990 ft 475 kts 172°
2026-04-23 22:18 42.21188 -88.08778 26417 ft 478 kts 172°
2026-04-23 22:18 42.17900 -88.07976 26998 ft 483 kts 172°
2026-04-23 22:19 42.14613 -88.07162 27556 ft 488 kts 172°
2026-04-23 22:19 42.11263 -88.06323 28129 ft 491 kts 172°
2026-04-23 22:19 42.07893 -88.05477 28682 ft 495 kts 172°
2026-04-23 22:19 42.04490 -88.04627 29178 ft 499 kts 172°
2026-04-23 22:20 42.01072 -88.03791 29616 ft 503 kts 172°
2026-04-23 22:20 41.97605 -88.02949 30047 ft 506 kts 172°
2026-04-23 22:20 41.94148 -88.02111 30547 ft 505 kts 172°
2026-04-23 22:20 41.90675 -88.01605 31083 ft 500 kts 181°
2026-04-23 22:21 41.87218 -88.01625 31633 ft 497 kts 184°
2026-04-23 22:21 41.83823 -88.01808 32190 ft 494 kts 185°
2026-04-23 22:21 41.80383 -88.02019 32732 ft 493 kts 185°
2026-04-23 22:21 41.76962 -88.02193 33256 ft 492 kts 185°
2026-04-23 22:22 41.73548 -88.02319 33756 ft 491 kts 184°
2026-04-23 22:22 41.70124 -88.02408 34206 ft 490 kts 184°
2026-04-23 22:22 41.65609 -88.02498 34719 ft 490 kts 184°
2026-04-23 22:22 41.63306 -88.02540 34963 ft 491 kts 184°
2026-04-23 22:23 41.59899 -88.02604 35321 ft 491 kts 184°
2026-04-23 22:23 41.56475 -88.02672 35701 ft 491 kts 184°
2026-04-23 22:23 41.53069 -88.02742 36084 ft 490 kts 184°
2026-04-23 22:23 41.49702 -88.02812 36437 ft 490 kts 184°
2026-04-23 22:24 41.46301 -88.02883 36782 ft 490 kts 184°
2026-04-23 22:24 41.42887 -88.03002 37135 ft 488 kts 187°
2026-04-23 22:24 41.39524 -88.03472 37484 ft 485 kts 192°
2026-04-23 22:24 41.36236 -88.04370 37819 ft 482 kts 198°
2026-04-23 22:25 41.32989 -88.05524 38140 ft 482 kts 199°
2026-04-23 22:25 41.29753 -88.06684 38470 ft 481 kts 198°
2026-04-23 22:25 41.26556 -88.07787 38740 ft 482 kts 198°
2026-04-23 22:25 41.23288 -88.08867 38796 ft 486 kts 197°
2026-04-23 22:26 41.16723 -88.10771 38847 ft 476 kts 195°
2026-04-23 22:26 41.10292 -88.12551 38851 ft 470 kts 195°
2026-04-23 22:27 41.03914 -88.14349 38854 ft 468 kts 195°
2026-04-23 22:27 40.97594 -88.16155 38857 ft 467 kts 195°
2026-04-23 22:28 40.91230 -88.17975 38863 ft 468 kts 195°
2026-04-23 22:28 40.84860 -88.19792 38859 ft 469 kts 195°
2026-04-23 22:29 40.78467 -88.21610 38864 ft 471 kts 195°
2026-04-23 22:29 40.72054 -88.23430 38862 ft 472 kts 195°
2026-04-23 22:30 40.65674 -88.25236 38866 ft 473 kts 195°
2026-04-23 22:30 40.59236 -88.27056 38860 ft 474 kts 195°
2026-04-23 22:31 40.52789 -88.28874 38874 ft 474 kts 195°
2026-04-23 22:31 40.46389 -88.30676 38874 ft 474 kts 195°
2026-04-23 22:32 40.39950 -88.32486 38874 ft 473 kts 195°
2026-04-23 22:32 40.33508 -88.34293 38874 ft 473 kts 195°
2026-04-23 22:33 40.27219 -88.36654 38883 ft 469 kts 202°
2026-04-23 22:33 40.21047 -88.39411 38879 ft 468 kts 202°
2026-04-23 22:34 40.14920 -88.42144 38885 ft 468 kts 202°
2026-04-23 22:34 40.08742 -88.44864 38885 ft 469 kts 202°
2026-04-23 22:35 40.02561 -88.47562 38888 ft 469 kts 202°
2026-04-23 22:35 39.96368 -88.50258 38884 ft 469 kts 202°
2026-04-23 22:36 39.90209 -88.52935 38886 ft 470 kts 202°
2026-04-23 22:36 39.84009 -88.55626 38874 ft 470 kts 202°
2026-04-23 22:37 39.77805 -88.58313 38876 ft 470 kts 202°
2026-04-23 22:37 39.71594 -88.60998 38874 ft 471 kts 202°
2026-04-23 22:38 39.65419 -88.63663 38882 ft 471 kts 202°
2026-04-23 22:38 39.59196 -88.66343 38880 ft 471 kts 202°
2026-04-23 22:39 39.52980 -88.69015 38887 ft 471 kts 202°
2026-04-23 22:39 39.46755 -88.71686 38884 ft 471 kts 202°
2026-04-23 22:40 39.40574 -88.74333 38892 ft 471 kts 202°
2026-04-23 22:41 39.31230 -88.78326 38894 ft 471 kts 201°
2026-04-23 22:41 39.25004 -88.80980 38893 ft 472 kts 201°
2026-04-23 22:42 39.18770 -88.83632 38895 ft 472 kts 201°
2026-04-23 22:42 39.12581 -88.86261 38895 ft 472 kts 201°
2026-04-23 22:43 39.06344 -88.88905 38898 ft 472 kts 201°
2026-04-23 22:43 39.00102 -88.91546 38902 ft 472 kts 201°
2026-04-23 22:44 38.93859 -88.94182 38899 ft 472 kts 201°
2026-04-23 22:44 38.87657 -88.96796 38904 ft 473 kts 201°
2026-04-23 22:45 38.81406 -88.99428 38898 ft 473 kts 201°
2026-04-23 22:45 38.75151 -89.02054 38906 ft 473 kts 201°
2026-04-23 22:46 38.68967 -89.04643 38881 ft 459 kts 201°
2026-04-23 22:46 38.62933 -89.07168 38885 ft 455 kts 201°
2026-04-23 22:47 38.56952 -89.09671 38906 ft 459 kts 201°
2026-04-23 22:47 38.50816 -89.12232 38906 ft 466 kts 201°
2026-04-23 22:48 38.44681 -89.14783 38884 ft 460 kts 201°
2026-04-23 22:48 38.38518 -89.16885 38895 ft 458 kts 194°
2026-04-23 22:49 38.32271 -89.18431 38899 ft 457 kts 193°
2026-04-23 22:49 38.26070 -89.19946 38906 ft 457 kts 194°
2026-04-23 22:50 38.19827 -89.21500 38909 ft 458 kts 194°
2026-04-23 22:50 38.13548 -89.23079 38909 ft 460 kts 194°
2026-04-23 22:51 38.07293 -89.24653 38907 ft 462 kts 194°
2026-04-23 22:51 38.00980 -89.26238 38911 ft 464 kts 194°
2026-04-23 22:52 37.94634 -89.27828 38906 ft 465 kts 194°
2026-04-23 22:52 37.88279 -89.29416 38907 ft 466 kts 194°
2026-04-23 22:53 37.81958 -89.30993 38899 ft 466 kts 193°
2026-04-23 22:53 37.75608 -89.32575 38912 ft 465 kts 193°
2026-04-23 22:54 37.69261 -89.34153 38898 ft 465 kts 193°
2026-04-23 22:54 37.62918 -89.35728 38911 ft 464 kts 193°
2026-04-23 22:55 37.56590 -89.37296 38904 ft 464 kts 193°
2026-04-23 22:55 37.50302 -89.38851 38904 ft 463 kts 193°
2026-04-23 22:56 37.43971 -89.40415 38911 ft 464 kts 193°
2026-04-23 22:56 37.37636 -89.41977 38906 ft 464 kts 193°
2026-04-23 22:57 37.31291 -89.43539 38923 ft 467 kts 193°
2026-04-23 22:57 37.28077 -89.44330 39062 ft 472 kts 193°
2026-04-23 22:57 37.24855 -89.45121 39359 ft 472 kts 193°
2026-04-23 22:57 37.21686 -89.45898 39747 ft 470 kts 193°
2026-04-23 22:58 37.18481 -89.46683 39930 ft 470 kts 193°
2026-04-23 22:58 37.12056 -89.48257 39904 ft 470 kts 193°
2026-04-23 22:59 37.05647 -89.49823 39903 ft 469 kts 193°
2026-04-23 22:59 36.99241 -89.51387 39904 ft 468 kts 193°
2026-04-23 23:00 36.92851 -89.52944 39907 ft 468 kts 193°
2026-04-23 23:00 36.86499 -89.54488 39908 ft 468 kts 193°
2026-04-23 23:01 36.80107 -89.56032 39904 ft 469 kts 193°
2026-04-23 23:01 36.73689 -89.57578 39911 ft 469 kts 193°
2026-04-23 23:02 36.67273 -89.59124 39922 ft 470 kts 193°
2026-04-23 23:02 36.60847 -89.60669 39932 ft 471 kts 193°
2026-04-23 23:03 36.54456 -89.62207 39933 ft 471 kts 193°
2026-04-23 23:03 36.48014 -89.63756 39938 ft 471 kts 193°
2026-04-23 23:04 36.41579 -89.65301 39930 ft 471 kts 193°
2026-04-23 23:04 36.35153 -89.66841 39938 ft 469 kts 193°
2026-04-23 23:05 36.28793 -89.68362 39939 ft 469 kts 193°
2026-04-23 23:05 36.22397 -89.69890 39930 ft 468 kts 193°
2026-04-23 23:06 36.16000 -89.71416 39938 ft 468 kts 193°
2026-04-23 23:06 36.09611 -89.72936 39928 ft 468 kts 193°
2026-04-23 23:07 36.03265 -89.74444 39927 ft 467 kts 193°
2026-04-23 23:07 35.96875 -89.75961 39926 ft 467 kts 193°
2026-04-23 23:08 35.90488 -89.77474 39922 ft 467 kts 193°
2026-04-23 23:08 35.84111 -89.78981 39925 ft 467 kts 193°
2026-04-23 23:09 35.77769 -89.80479 39924 ft 467 kts 193°
2026-04-23 23:09 35.71394 -89.81982 39923 ft 466 kts 193°
2026-04-23 23:10 35.65018 -89.83482 39926 ft 466 kts 193°
2026-04-23 23:10 35.58660 -89.84976 39937 ft 465 kts 193°
2026-04-23 23:11 35.52340 -89.86458 39936 ft 465 kts 193°
2026-04-23 23:11 35.45994 -89.87944 39933 ft 465 kts 193°
2026-04-23 23:12 35.39642 -89.89429 39936 ft 464 kts 193°
2026-04-23 23:12 35.33303 -89.90909 39935 ft 464 kts 193°
2026-04-23 23:13 35.26971 -89.92385 39933 ft 463 kts 193°
2026-04-23 23:13 35.20638 -89.93859 39930 ft 463 kts 193°
2026-04-23 23:14 35.14342 -89.95322 39954 ft 463 kts 193°
2026-04-23 23:14 35.08014 -89.96791 39954 ft 462 kts 193°
2026-04-23 23:15 35.01695 -89.98254 39950 ft 462 kts 193°
2026-04-23 23:15 34.95395 -89.99553 39948 ft 462 kts 191°
2026-04-23 23:16 34.89043 -90.00740 39949 ft 462 kts 191°
2026-04-23 23:16 34.82681 -90.01941 39941 ft 462 kts 191°
2026-04-23 23:17 34.76333 -90.03159 39943 ft 461 kts 191°
2026-04-23 23:17 34.69985 -90.04382 39935 ft 461 kts 191°
2026-04-23 23:18 34.63699 -90.05592 39939 ft 460 kts 191°
2026-04-23 23:18 34.57373 -90.06806 39939 ft 460 kts 191°
2026-04-23 23:19 34.51055 -90.08017 39948 ft 460 kts 191°
2026-04-23 23:19 34.44728 -90.09227 39947 ft 460 kts 191°
2026-04-23 23:20 34.38458 -90.10425 39951 ft 459 kts 191°
2026-04-23 23:20 34.32145 -90.11628 39953 ft 459 kts 191°
2026-04-23 23:21 34.25834 -90.12822 39946 ft 459 kts 191°
2026-04-23 23:21 34.19495 -90.13808 39933 ft 460 kts 185°
2026-04-23 23:22 34.13137 -90.14129 39933 ft 460 kts 184°
2026-04-23 23:22 34.06741 -90.14395 39944 ft 460 kts 184°
2026-04-23 23:23 34.00351 -90.14693 39933 ft 460 kts 184°
2026-04-23 23:23 33.93960 -90.15018 39942 ft 459 kts 184°
2026-04-23 23:24 33.87577 -90.15349 39941 ft 459 kts 184°
2026-04-23 23:24 33.81238 -90.15678 39944 ft 459 kts 184°
2026-04-23 23:25 33.74862 -90.16007 39948 ft 459 kts 184°
2026-04-23 23:25 33.68489 -90.16335 40010 ft 458 kts 185°
2026-04-23 23:26 33.62181 -90.16655 39951 ft 448 kts 186°
2026-04-23 23:26 33.55965 -90.16974 39950 ft 447 kts 186°
2026-04-23 23:27 33.49749 -90.17295 39954 ft 447 kts 186°
2026-04-23 23:27 33.43570 -90.17612 39956 ft 449 kts 186°
2026-04-23 23:28 33.37316 -90.17932 39949 ft 451 kts 186°
2026-04-23 23:28 33.31036 -90.18252 39954 ft 453 kts 186°
2026-04-23 23:29 33.24729 -90.18573 39950 ft 454 kts 186°
2026-04-23 23:29 33.18445 -90.18893 39954 ft 456 kts 186°
2026-04-23 23:30 33.12110 -90.19214 39945 ft 456 kts 186°
2026-04-23 23:30 33.05764 -90.19535 39944 ft 456 kts 186°
2026-04-23 23:31 32.99416 -90.19856 39940 ft 456 kts 186°
2026-04-23 23:31 32.93129 -90.20174 39943 ft 455 kts 186°
2026-04-23 23:32 32.86803 -90.20493 39945 ft 455 kts 186°
2026-04-23 23:32 32.80473 -90.20812 39951 ft 455 kts 186°
2026-04-23 23:33 32.74156 -90.21130 39949 ft 455 kts 186°
2026-04-23 23:33 32.67833 -90.21448 39954 ft 455 kts 186°
2026-04-23 23:34 32.61503 -90.21766 39953 ft 455 kts 186°
2026-04-23 23:34 32.55212 -90.22081 39959 ft 456 kts 186°
2026-04-23 23:35 32.48862 -90.22397 39963 ft 457 kts 186°
2026-04-23 23:35 32.42504 -90.22715 39973 ft 457 kts 186°
2026-04-23 23:36 32.36147 -90.23032 39973 ft 458 kts 186°
2026-04-23 23:36 32.29816 -90.23348 39972 ft 458 kts 186°
2026-04-23 23:36 32.26610 -90.23509 39566 ft 470 kts 186°
2026-04-23 23:37 32.23267 -90.23682 38864 ft 486 kts 186°
2026-04-23 23:37 32.19874 -90.23853 38020 ft 489 kts 185°
2026-04-23 23:37 32.16486 -90.24018 37189 ft 488 kts 185°
2026-04-23 23:37 32.13103 -90.24182 36397 ft 486 kts 186°
2026-04-23 23:38 32.09715 -90.24347 35580 ft 486 kts 186°
2026-04-23 23:38 32.06340 -90.24513 34917 ft 484 kts 186°
2026-04-23 23:38 32.02989 -90.24677 34331 ft 480 kts 186°
2026-04-23 23:38 31.99710 -90.24839 33732 ft 476 kts 186°
2026-04-23 23:39 31.96417 -90.25002 33109 ft 473 kts 186°
2026-04-23 23:39 31.93134 -90.25165 32522 ft 469 kts 186°
2026-04-23 23:39 31.89886 -90.25325 31969 ft 465 kts 186°
2026-04-23 23:39 31.86660 -90.25485 31431 ft 462 kts 186°
2026-04-23 23:40 31.83465 -90.25643 30901 ft 458 kts 186°
2026-04-23 23:40 31.80295 -90.25800 30385 ft 455 kts 186°
2026-04-23 23:40 31.77143 -90.25956 29808 ft 452 kts 186°
2026-04-23 23:40 31.74009 -90.26110 29217 ft 449 kts 186°
2026-04-23 23:41 31.70944 -90.26249 28680 ft 445 kts 185°
2026-04-23 23:41 31.67857 -90.26272 28218 ft 446 kts 182°
2026-04-23 23:41 31.64725 -90.26224 27749 ft 453 kts 182°
2026-04-23 23:41 31.61562 -90.26156 27256 ft 455 kts 182°
2026-04-23 23:42 31.58400 -90.26093 26766 ft 453 kts 182°
2026-04-23 23:42 31.55264 -90.26043 26286 ft 450 kts 182°
2026-04-23 23:42 31.52138 -90.26004 25806 ft 447 kts 182°
2026-04-23 23:42 31.49043 -90.25972 25336 ft 444 kts 182°
2026-04-23 23:43 31.45954 -90.25944 24862 ft 442 kts 182°
2026-04-23 23:43 31.42888 -90.25916 24394 ft 440 kts 182°
2026-04-23 23:43 31.39832 -90.25889 23914 ft 438 kts 182°
2026-04-23 23:43 31.36786 -90.25861 23422 ft 437 kts 182°
2026-04-23 23:44 31.33762 -90.25832 22891 ft 433 kts 182°
2026-04-23 23:44 31.30770 -90.25802 22402 ft 428 kts 182°
2026-04-23 23:44 31.27850 -90.25702 21938 ft 423 kts 180°
2026-04-23 23:44 31.24928 -90.25494 21486 ft 418 kts 178°
2026-04-23 23:45 31.22036 -90.25252 21038 ft 414 kts 178°
2026-04-23 23:45 31.19182 -90.25011 20607 ft 410 kts 178°
2026-04-23 23:45 31.16354 -90.24782 20176 ft 406 kts 178°
2026-04-23 23:45 31.13542 -90.24564 19745 ft 403 kts 178°
2026-04-23 23:46 31.10754 -90.24355 19318 ft 400 kts 178°
2026-04-23 23:46 31.07990 -90.24151 18894 ft 397 kts 178°
2026-04-23 23:46 31.05231 -90.23949 18467 ft 395 kts 178°
2026-04-23 23:46 31.02494 -90.23749 17993 ft 394 kts 178°
2026-04-23 23:47 30.99770 -90.23550 17543 ft 391 kts 178°
2026-04-23 23:47 30.97103 -90.23355 17126 ft 388 kts 178°
2026-04-23 23:47 30.94420 -90.23158 16695 ft 385 kts 178°
2026-04-23 23:47 30.91761 -90.22964 16280 ft 382 kts 178°
2026-04-23 23:48 30.89122 -90.22771 15869 ft 379 kts 178°
2026-04-23 23:48 30.86498 -90.22580 15472 ft 376 kts 178°
2026-04-23 23:48 30.83901 -90.22390 15072 ft 373 kts 178°
2026-04-23 23:48 30.81307 -90.22201 14676 ft 371 kts 178°
2026-04-23 23:49 30.76219 -90.21828 13885 ft 367 kts 178°
2026-04-23 23:49 30.73679 -90.21642 13452 ft 365 kts 178°
2026-04-23 23:49 30.71157 -90.21459 13038 ft 362 kts 178°
2026-04-23 23:50 30.68652 -90.21276 12638 ft 359 kts 178°
2026-04-23 23:50 30.66172 -90.21095 12251 ft 355 kts 178°
2026-04-23 23:50 30.63721 -90.20916 11862 ft 351 kts 178°
2026-04-23 23:50 30.61299 -90.20739 11484 ft 347 kts 178°
2026-04-23 23:51 30.58904 -90.20564 11121 ft 342 kts 178°
2026-04-23 23:51 30.56558 -90.20392 10999 ft 330 kts 178°
2026-04-23 23:51 30.54362 -90.20231 10967 ft 301 kts 179°
2026-04-23 23:51 30.52362 -90.20477 10721 ft 291 kts 200°
2026-04-23 23:52 30.50640 -90.21638 10241 ft 285 kts 222°
2026-04-23 23:52 30.49231 -90.23214 9776 ft 279 kts 227°
2026-04-23 23:52 30.47918 -90.24846 9271 ft 274 kts 228°
2026-04-23 23:52 30.46636 -90.26482 8903 ft 275 kts 228°
2026-04-23 23:53 30.45363 -90.28121 8621 ft 272 kts 228°
2026-04-23 23:53 30.44101 -90.29760 8256 ft 273 kts 228°
2026-04-23 23:53 30.42852 -90.31396 7989 ft 270 kts 228°
2026-04-23 23:53 30.41617 -90.33029 7691 ft 269 kts 228°
2026-04-23 23:54 30.40409 -90.34639 7379 ft 268 kts 228°
2026-04-23 23:54 30.39189 -90.36275 7084 ft 268 kts 229°
2026-04-23 23:54 30.37979 -90.37910 6791 ft 267 kts 229°
2026-04-23 23:54 30.36779 -90.39547 6476 ft 267 kts 229°
2026-04-23 23:55 30.35507 -90.41083 6058 ft 264 kts 213°
2026-04-23 23:55 30.33883 -90.42038 5757 ft 260 kts 201°
2026-04-23 23:55 30.32208 -90.42781 5487 ft 257 kts 199°
2026-04-23 23:55 30.30518 -90.43498 5141 ft 259 kts 199°
2026-04-23 23:56 30.28832 -90.44208 4868 ft 257 kts 199°
2026-04-23 23:56 30.27161 -90.44910 4572 ft 255 kts 198°
2026-04-23 23:56 30.25517 -90.45608 4299 ft 253 kts 198°
2026-04-23 23:56 30.23880 -90.46313 4051 ft 251 kts 198°
2026-04-23 23:57 30.22254 -90.47020 3803 ft 248 kts 198°
2026-04-23 23:57 30.20642 -90.47727 3534 ft 248 kts 198°
2026-04-23 23:57 30.19031 -90.48440 3237 ft 247 kts 199°
2026-04-23 23:57 30.17432 -90.49150 3070 ft 244 kts 198°
2026-04-23 23:58 30.15829 -90.49866 3034 ft 252 kts 199°
2026-04-23 23:58 30.14171 -90.50610 3011 ft 259 kts 199°
2026-04-23 23:58 30.12519 -90.51361 2924 ft 247 kts 198°
2026-04-23 23:58 30.10981 -90.52073 2742 ft 231 kts 199°
2026-04-23 23:59 30.09512 -90.52551 2481 ft 215 kts 178°
2026-04-23 23:59 30.08124 -90.52106 2173 ft 211 kts 142°
2026-04-23 23:59 30.07137 -90.50923 2116 ft 200 kts 129°
2026-04-23 23:59 30.06295 -90.49698 2039 ft 189 kts 129°
2026-04-24 00:00 30.05524 -90.48558 2028 ft 173 kts 129°
2026-04-24 00:00 30.04781 -90.47458 2002 ft 177 kts 129°
2026-04-24 00:00 30.04141 -90.46268 1989 ft 175 kts 113°
2026-04-24 00:00 30.03742 -90.44950 2000 ft 173 kts 111°
2026-04-24 00:01 30.03385 -90.43632 2016 ft 171 kts 108°
2026-04-24 00:01 30.03063 -90.42328 1990 ft 167 kts 108°
2026-04-24 00:01 30.02767 -90.41097 1981 ft 155 kts 108°
2026-04-24 00:01 30.02486 -90.39921 1954 ft 149 kts 109°
2026-04-24 00:02 30.02216 -90.38798 1754 ft 139 kts 110°
2026-04-24 00:02 30.01968 -90.37766 1607 ft 131 kts 110°
2026-04-24 00:02 30.01719 -90.36771 1430 ft 129 kts 110°
2026-04-24 00:02 30.01455 -90.35767 1251 ft 133 kts 108°
2026-04-24 00:03 30.01253 -90.34731 1138 ft 132 kts 106°
2026-04-24 00:03 30.01024 -90.33695 988 ft 133 kts 108°
2026-04-24 00:03 30.00772 -90.32687 810 ft 128 kts 108°
2026-04-24 00:03 30.00521 -90.31715 652 ft 125 kts 107°
2026-04-24 00:04 30.00306 -90.30777 460 ft 120 kts 108°
2026-04-24 00:04 30.00074 -90.29854 310 ft 120 kts 107°
2026-04-24 00:04 29.99851 -90.28921 168 ft 119 kts 109°
2026-04-24 00:04 29.99633 -90.28023 35 ft 112 kts 108°
2026-04-24 00:05 29.99442 -90.27251 16 ft 81 kts 105°
2026-04-24 00:05 29.99333 -90.26796 22 ft 37 kts 105°
2026-04-24 00:05 29.99299 -90.26654 21 ft 11 kts 105°
2026-04-24 00:05 29.99273 -90.26551 18 ft 15 kts 109°
2026-04-24 00:06 29.99208 -90.26509 18 ft 11 kts 181°
2026-04-24 00:06 29.99137 -90.26478 17 ft 12 kts 127°
2026-04-24 00:06 29.99107 -90.26380 16 ft 15 kts 104°
2026-04-24 00:06 29.99078 -90.26263 16 ft 15 kts 104°
2026-04-24 00:07 29.99050 -90.26146 17 ft 15 kts 106°
2026-04-24 00:07 29.99021 -90.26028 17 ft 15 kts 105°
2026-04-24 00:07 29.98994 -90.25914 17 ft 14 kts 105°
2026-04-24 00:07 29.98958 -90.25863 18 ft 6 kts 181°
2026-04-24 00:08 29.98946 -90.25866 18 ft 1 kts 188°
2026-04-24 00:08 29.98939 -90.25872 18 ft 3 kts 220°
2026-04-24 00:08 29.98898 -90.25906 18 ft 8 kts 209°
2026-04-24 00:08 29.98886 -90.25908 19 ft 0 kts 186°